Home > Weather > Columbia > Past weeks

Flag for USA Past Weather in Columbia, South Carolina, USA — Yesterday and Last 2 Weeks

Now
78 °F

Clear.


Feels Like: 80 °F
Forecast: 76 / 94 °F
Wind: No wind

Location: Columbia Owens Downtown Airport

Current Time: Jul 31, 2016 at 5:46:31 AM

Latest Report: Jul 31, 2016 at 4:53 AM


Visibility: 10 mi

Pressure: 29.99 "Hg

Humidity: 79%

Dew Point: 71 °F

Location of ColumbiaLocation

Past Weather in Columbia — Graph

°F

Columbia Temperature Yesterday

Maximum temperature yesterday: 98 °F (at 1:53 PM)
Minimum temperature yesterday: 77 °F (at 6:53 AM)
Average temperature yesterday: 88 °F

High & Low Weather Summary for the Past Weeks

 TemperatureHumidityPressure
High99 °F (Jul 28, 2:53 PM)97% (Jul 18, 6:53 AM)30.26 "Hg (Jul 18, 6:53 AM)
Low72 °F (Jul 17, 5:53 AM)35% (Jul 29, 5:53 PM)29.89 "Hg (Jul 29, 5:53 PM)
Average84 °F67%30.07 "Hg
* Reported Jul 16 3:53 AM — Jul 31 3:53 AM, Columbia, Weather by CustomWeather, © 2016

Note: Actual official high and low records may vary slightly from our data, if they occured in-between our weather recording intervals... More about our weather records

Advertising

Columbia Weather History for the Previous 24 Hours

Scroll right to see more
 ConditionsComfort  
Time TempWeatherWind HumidityBarometerVisibility
3:53 AM
Sun, Jul 31
79 °FClear.No wind77%29.99 "Hg10 mi
2:53 AM80 °FClear.No wind71%30.00 "Hg10 mi
1:53 AM81 °FClear.3 mph72%30.01 "Hg10 mi
12:53 AM82 °FClear.3 mph70%30.01 "Hg10 mi
11:53 PM
Sat, Jul 30
85 °FClear.No wind61%30.01 "Hg10 mi
10:53 PM86 °FClear.No wind59%30.00 "Hg10 mi
9:53 PM88 °FPassing clouds.3 mph55%29.97 "Hg10 mi
8:53 PM89 °FSunny.3 mph50%29.95 "Hg10 mi
7:53 PM91 °FSunny.6 mph45%29.96 "Hg10 mi
6:53 PM94 °FSunny.8 mph48%29.94 "Hg10 mi
5:53 PM92 °FSunny.8 mph47%29.93 "Hg10 mi
4:53 PM94 °FSunny.16 mph43%29.93 "Hg10 mi
3:53 PM96 °FScattered clouds.12 mph38%29.94 "Hg10 mi
2:53 PM97 °FScattered clouds.9 mph37%29.94 "Hg10 mi
1:53 PM98 °FSunny.9 mph35%29.97 "Hg10 mi
12:53 PM95 °FScattered clouds.7 mph41%29.99 "Hg10 mi
11:53 AM96 °FSunny.13 mph40%30.01 "Hg10 mi
10:53 AM92 °FSunny.7 mph47%30.01 "Hg10 mi
9:53 AM88 °FSunny.5 mph57%30.01 "Hg10 mi
8:53 AM84 °FSunny.5 mph65%30.01 "Hg10 mi
7:53 AM80 °FSunny.3 mph74%29.99 "Hg10 mi
6:53 AM77 °FClear.No wind88%29.98 "Hg10 mi
5:53 AM78 °FClear.No wind84%29.94 "Hg10 mi
Weather by CustomWeather, © 2016

See weather overviewHow to use our weather pages